パンスターズ彗星

C/2021 R7 ( PanSTARRS )

English version
Home page
Updated on March 27, 2022

---------------------------------------------------------------------

・ プロフィール

発見日 2021年9月5日
発見光度 22.0等
発見者 Pan-STARRS 2 telescope (Haleakala)

・ 軌道要素

Epoch 2022 Jan. 21.0 TT = JDT 2459600.5
T 2021 Apr. 14.82603 TT                                 Rudenko
q   5.6410844            (2000.0)            P               Q
z  +0.0008822      Peri.  140.03081     +0.85761885     +0.51056665
 +/-0.0000078      Node   170.14566     +0.32905769     -0.63702291
e   0.9950236      Incl.  158.85444     +0.39523531     -0.57751494
From 55 observations 2021 Aug. 7-2022 Jan. 5, mean residual 0".5.

・ 光度変化

        m1 = 10.5 + 5 logΔ + 10.0 log r

---------------------------------------------------------------------

軌道要素はM.P.E.C. 2022-C56に掲載されたものです。
光度グラフはComet for Windowsで作成したものです。

---------------------------------------------------------------------

Copyright(C) Seiichi Yoshida (comet@aerith.net). All rights reserved.